Location: �chenoz-la-M�line
(47.6009°N, 6.1354°E)
Time: 12:09:38
(UTC+00:00)

Cosmos 1634 Rocket - Pass Details

Date: 27 January 2021
Orbit: 961 x 991 km, 82.9° (Epoch: 02 March)

Event Time Altitude Azimuth Distance (km) Brightness Sun altitude
Rises 04:58:44 0° 179° (S) 3,630 7.1 -21.7°
Reaches altitude 10° 05:01:14 10° 177° (S) 2,688 6.4 -21.3°
Maximum altitude 05:07:20 71° 95° (E) 1,021 4.2 -20.3°
Drops below altitude 10° 05:13:30 10° 13° (NNE) 2,718 6.4 -19.2°
Sets 05:16:02 0° 11° (N) 3,672 7.1 -18.8°
